Weather History for LSZB - December, 2012

Change the Weather History Date:

Thursday, December 13, 2012

  Actual Average Record
Temperature  
Mean Temperature 14 °F -  
Max Temperature 26 °F 37 °F 55 °F (2000)
Min Temperature 1 °F 28 °F 1 °F (2012)
Degree Days  
Heating Degree Days 52    
Moisture  
Dew Point 13 °F    
Average Humidity 89    
Maximum Humidity 100    
Minimum Humidity 80    
Precipitation  
Precipitation 0.00 in - - ()
Sea Level Pressure  
Sea Level Pressure 29.93 in    
Wind  
Wind Speed 2 mph ()    
Max Wind Speed 6 mph    
Max Gust Speed -    
Visibility 5.7 miles    
Events Snow    
Averages and records for this station are not official NWS values.
T = Trace of Precipitation, MM = Missing Value Source: Averaged Metar Reports

Daily Weather History Graph

Daily Weather History Graph

Search for Another Location

Airport or City:

Trip Planner

Search our weather history database for the weather conditions in past years. The results will help you decide how hot, cold, wet, or windy it might be!

Date:

Astronomy

Dec. 13, 2012 Rise Set
Actual Time 8:07 AM CET 4:41 PM CET
Civil Twilight 7:32 AM CET 5:16 PM CET
Nautical Twilight 6:53 AM CET 5:55 PM CET
Astronomical Twilight 6:16 AM CET 6:32 PM CET
Moon 7:58 AM CET (12/13) 5:06 PM CET (12/13)
Length of Visible Light 9h 44m
Length of Day
8h 34m
New Moon, 0% of the Moon is Illuminated
Dec 13
New Moon
Dec 20
First Quarter
Dec 28
Full
Jan 5
Last Quarter
Jan 11
New

Hourly Weather History & Observations

Time (CET) Temp. Windchill Dew Point Humidity Pressure Visibility Wind Dir Wind Speed Gust Speed Precip Events Conditions
12:20 AM 3.2 °F - 1.4 °F 92% 30.06 in 1.7 mi Variable 1.2 mph - N/A   Unknown
12:50 AM 1.4 °F - -2.2 °F 85% 30.04 in 0.1 mi Variable 2.3 mph - N/A   Unknown
1:20 AM 1.4 °F -6.2 °F -0.4 °F 92% 30.04 in 3.1 mi SE 3.5 mph - N/A   Unknown
1:50 AM 1.4 °F -8.3 °F -0.4 °F 92% 30.04 in - SSE 4.6 mph - N/A   Clear
2:20 AM 3.2 °F -4.2 °F 1.4 °F 92% 30.04 in 5.0 mi SE 3.5 mph - N/A   Partly Cloudy
2:50 AM 3.2 °F - -0.4 °F 85% 30.01 in 5.6 mi Variable 1.2 mph - N/A   Unknown
3:20 AM 6.8 °F - 5.0 °F 92% 30.01 in - Variable 2.3 mph - N/A   Clear
3:50 AM 5.0 °F - 3.2 °F 92% 30.01 in - SSW 2.3 mph - N/A   Clear
4:20 AM 5.0 °F - 1.4 °F 85% 29.98 in - Variable 1.2 mph - N/A   Clear
4:50 AM 6.8 °F - 3.2 °F 85% 29.98 in 5.6 mi South 1.2 mph - N/A   Unknown
5:20 AM 6.8 °F - 5.0 °F 92% 29.98 in 6.2 mi Variable 1.2 mph - N/A   Partly Cloudy
5:37 AM 6.8 °F - 5.0 °F 92% 29.98 in 6.2 mi Calm Calm - N/A   Mostly Cloudy
5:50 AM 5.0 °F - 3.2 °F 92% 29.98 in 6.2 mi Variable 1.2 mph - N/A   Mostly Cloudy
6:20 AM 5.0 °F - 3.2 °F 92% 29.98 in 6.2 mi Variable 1.2 mph - N/A   Mostly Cloudy
6:50 AM 5.0 °F - 3.2 °F 92% 29.98 in 6.2 mi Variable 1.2 mph - N/A   Mostly Cloudy
7:20 AM 5.0 °F -2.1 °F 3.2 °F 92% 29.98 in 6.2 mi South 3.5 mph - N/A   Mostly Cloudy
7:50 AM 6.8 °F -0.1 °F 3.2 °F 85% 29.98 in 6.2 mi Variable 3.5 mph - N/A   Scattered Clouds
8:20 AM 6.8 °F - 3.2 °F 85% 29.98 in 5.0 mi Calm Calm - N/A   Scattered Clouds
8:50 AM 8.6 °F - 8.6 °F 100% 29.98 in 5.0 mi Variable 2.3 mph - N/A   Mostly Cloudy
9:20 AM 12.2 °F - 10.4 °F 92% 29.98 in 6.2 mi West 2.3 mph - N/A   Partly Cloudy
9:50 AM 12.2 °F - 10.4 °F 92% 29.98 in 6.2 mi Variable 1.2 mph - N/A   Partly Cloudy
10:20 AM 14.0 °F - 12.2 °F 93% 29.98 in 6.2 mi Variable 1.2 mph - N/A   Mostly Cloudy
10:50 AM 14.0 °F - 14.0 °F 100% 29.98 in 6.2 mi Variable 1.2 mph - N/A   Mostly Cloudy
11:20 AM 15.8 °F - 15.8 °F 100% 29.98 in 6.2 mi Variable 1.2 mph - N/A   Mostly Cloudy
11:50 AM 19.4 °F 14.3 °F 17.6 °F 93% 29.95 in 6.2 mi Variable 3.5 mph - N/A   Mostly Cloudy
12:20 PM 19.4 °F - 17.6 °F 93% 29.95 in 6.2 mi Calm Calm - N/A   Mostly Cloudy
12:50 PM 21.2 °F - 19.4 °F 93% 29.95 in 6.2 mi SSE 2.3 mph - N/A   Scattered Clouds
1:20 PM 23.0 °F - 19.4 °F 86% 29.92 in 6.2 mi Variable 2.3 mph - N/A   Overcast
1:50 PM 24.8 °F - 19.4 °F 80% 29.92 in 6.2 mi Variable 1.2 mph - N/A   Mostly Cloudy
2:20 PM 23.0 °F - 19.4 °F 86% 29.92 in 6.2 mi Variable 1.2 mph - N/A   Mostly Cloudy
2:50 PM 24.8 °F 20.5 °F 21.2 °F 86% 29.89 in 6.2 mi Variable 3.5 mph - N/A   Mostly Cloudy
3:20 PM 26.6 °F 21.2 °F 21.2 °F 80% 29.89 in 6.2 mi South 4.6 mph - N/A   Scattered Clouds
3:50 PM 24.8 °F 20.5 °F 21.2 °F 86% 29.86 in 6.2 mi ESE 3.5 mph - N/A   Mostly Cloudy
4:20 PM 24.8 °F 17.9 °F 21.2 °F 86% 29.86 in 6.2 mi East 5.8 mph - N/A   Scattered Clouds
4:50 PM 23.0 °F 18.4 °F 19.4 °F 86% 29.86 in 6.2 mi SE 3.5 mph - N/A   Scattered Clouds
5:20 PM 23.0 °F - 19.4 °F 86% 29.86 in 6.2 mi Variable 1.2 mph - N/A   Mostly Cloudy
5:50 PM 24.8 °F 20.5 °F 21.2 °F 86% 29.86 in 6.2 mi NNW 3.5 mph - N/A   Mostly Cloudy
6:20 PM 24.8 °F - 23.0 °F 93% 29.86 in 6.2 mi Variable 1.2 mph - N/A   Mostly Cloudy
6:50 PM 24.8 °F - 23.0 °F 93% 29.86 in 6.2 mi SSE 1.2 mph - N/A   Mostly Cloudy
7:20 PM 26.6 °F - 23.0 °F 86% 29.86 in 6.2 mi SSE 2.3 mph - N/A   Mostly Cloudy
7:50 PM 26.6 °F - 23.0 °F 86% 29.86 in 6.2 mi ESE 2.3 mph - N/A   Mostly Cloudy
8:20 PM 26.6 °F - 21.2 °F 80% 29.86 in 6.2 mi East 2.3 mph - N/A   Mostly Cloudy
8:50 PM 26.6 °F - 23.0 °F 86% 29.83 in 4.3 mi Calm Calm - N/A Snow Light Snow
9:20 PM 26.6 °F 22.6 °F 23.0 °F 86% 29.83 in 4.3 mi SSW 3.5 mph - N/A Snow Light Snow
9:50 PM 26.6 °F - 23.0 °F 86% 29.83 in 6.2 mi Calm Calm - N/A Snow Light Snow
10:20 PM 26.6 °F - 23.0 °F 86% 29.83 in 6.2 mi Variable 2.3 mph - N/A Snow Light Snow
10:50 PM 26.6 °F - 23.0 °F 86% 29.83 in 6.2 mi Variable 1.2 mph - N/A   Partly Cloudy
11:20 PM 26.6 °F - 24.8 °F 93% 29.83 in 6.2 mi WNW 2.3 mph - N/A   Partly Cloudy
11:50 PM 26.6 °F - 24.8 °F 93% 29.83 in - Variable 1.2 mph - N/A   Clear